contact:dominique.lefevre@mio.osupytheas.fr, maurice.libes@osupytheas.fr, didier.mallarino@osupytheas.fr
Project:EMSO http://www.emso-fr.org/EMSO-France
Depth: 2436.0 m
Title:EMSO Ligure Ouest : Data MII capteur AQUADOPP
Date,Latitude,Longitude,X_East,Y_North,Z_Up,Amplitude_X,Amplitude_Y,Amplitude_Z,Batterie,SoundSpeed,Heading,Pitch,Roll,Pressure,TIS,Speed,Direction
, degrees North, degrees East, m.s-1, m.s-1,m.s-1, 1, 1, 1, Volt, m.s-1, degree, degree, degree, dbar, degree_C, m.s-1, degree
2023-02-15T00:04:03,42.805,6.029,0.016,-0.015,-0.008,102.0,102.0,101.0,13.3,1505.2,322.2,-0.8,1.8,2471.104,13.28,0.021,133.1
2023-02-15T00:07:03,42.805,6.029,0.01,-0.025,-0.017,102.0,101.0,100.0,13.3,1505.2,321.3,-0.8,1.8,2471.121,13.28,0.026,158.2
2023-02-15T00:10:03,42.805,6.029,0.004,-0.006,-0.018,102.0,101.0,101.0,13.4,1505.2,336.1,-0.8,1.8,2471.152,13.28,0.007,146.3
2023-02-15T00:13:03,42.805,6.029,-0.008,-0.026,-0.023,101.0,102.0,101.0,13.4,1505.2,325.4,-0.8,1.8,2471.127,13.28,0.027,197.1
2023-02-15T00:16:03,42.805,6.029,-0.014,-0.002,-0.016,102.0,100.0,101.0,13.3,1505.2,326.7,-0.8,1.8,2471.134,13.29,0.014,261.9
2023-02-15T00:19:03,42.805,6.029,-0.017,-0.013,-0.038,101.0,101.0,100.0,13.4,1505.2,336.1,-0.8,1.8,2471.093,13.29,0.021,232.6
2023-02-15T00:22:03,42.805,6.029,-0.015,-0.019,-0.037,101.0,101.0,101.0,13.3,1505.2,336.5,-0.8,1.8,2471.13,13.29,0.024,218.3
2023-02-15T00:25:03,42.805,6.029,0.012,-0.026,-0.023,101.0,101.0,100.0,13.3,1505.2,327.1,-0.8,1.8,2471.058,13.29,0.028,155.2
2023-02-15T00:28:03,42.805,6.029,-0.02,-0.026,-0.016,100.0,101.0,101.0,13.4,1505.2,317.7,-0.7,1.8,2471.093,13.29,0.032,217.6
2023-02-15T00:31:03,42.805,6.029,-0.002,-0.008,-0.021,101.0,101.0,100.0,13.4,1505.2,328.2,-0.8,1.8,2471.103,13.29,0.008,194.0
2023-02-15T00:34:03,42.805,6.029,0.016,-0.037,-0.034,102.0,100.0,101.0,13.3,1505.2,336.9,-0.8,1.8,2471.094,13.29,0.04,156.6
2023-02-15T00:37:03,42.805,6.029,0.0,0.001,0.009,102.0,100.0,100.0,13.4,1505.2,330.3,-0.8,1.8,2471.134,13.29,0.001,0.0
2023-02-15T00:40:03,42.805,6.029,-0.001,-0.02,-0.041,102.0,101.0,101.0,13.4,1505.2,322.7,-0.8,1.8,2471.106,13.29,0.02,182.9
2023-02-15T00:43:03,42.805,6.029,0.002,-0.028,-0.04,101.0,101.0,101.0,13.4,1505.2,324.3,-0.8,1.8,2471.115,13.29,0.028,175.9
2023-02-15T00:46:03,42.805,6.029,0.01,-0.031,-0.036,102.0,102.0,100.0,13.3,1505.2,321.6,-0.7,1.8,2471.126,13.29,0.032,162.1
2023-02-15T00:49:03,42.805,6.029,-0.022,-0.026,-0.074,101.0,101.0,101.0,13.4,1505.2,337.0,-0.8,1.8,2471.103,13.29,0.034,220.2
2023-02-15T00:52:03,42.805,6.029,-0.019,-0.026,-0.038,103.0,101.0,102.0,13.4,1505.2,319.4,-0.8,1.8,2471.119,13.29,0.032,216.2
2023-02-15T00:55:03,42.805,6.029,0.004,-0.004,-0.004,102.0,101.0,102.0,13.3,1505.2,326.9,-0.7,1.8,2471.122,13.29,0.005,135.0
2023-02-15T00:58:03,42.805,6.029,0.01,-0.018,-0.05,102.0,102.0,101.0,13.4,1505.2,320.7,-0.8,1.8,2471.09,13.29,0.02,150.9
2023-02-15T01:04:03,42.805,6.029,-0.009,-0.041,-0.038,104.0,103.0,104.0,13.4,1505.2,325.6,-0.7,1.8,2471.098,13.28,0.041,192.4
2023-02-15T01:07:03,42.805,6.029,-0.011,-0.014,-0.023,101.0,102.0,101.0,13.4,1505.2,320.7,-0.8,1.8,2471.152,13.28,0.017,218.2
2023-02-15T01:10:03,42.805,6.029,0.007,-0.024,-0.008,102.0,103.0,102.0,13.4,1505.2,316.6,-0.8,1.8,2471.15,13.29,0.025,163.7
2023-02-15T01:13:03,42.805,6.029,-0.044,-0.007,-0.044,101.0,101.0,101.0,13.4,1505.2,315.5,-0.8,1.8,2471.122,13.29,0.044,261.0
2023-02-15T01:16:03,42.805,6.029,-0.026,-0.015,-0.043,101.0,102.0,102.0,13.4,1505.2,330.8,-0.7,1.8,2471.141,13.29,0.03,240.0
2023-02-15T01:19:03,42.805,6.029,-0.026,-0.007,-0.024,102.0,102.0,101.0,13.4,1505.2,338.2,-0.8,1.8,2471.151,13.29,0.026,254.9
2023-02-15T01:22:03,42.805,6.029,-0.036,-0.014,-0.02,102.0,102.0,102.0,13.4,1505.2,332.0,-0.8,1.8,2471.143,13.29,0.038,248.8
2023-02-15T01:25:03,42.805,6.029,-0.038,-0.012,-0.023,101.0,101.0,101.0,13.4,1505.2,315.0,-0.7,1.8,2471.12,13.29,0.039,252.5
2023-02-15T01:28:03,42.805,6.029,-0.015,-0.026,-0.039,101.0,102.0,101.0,13.4,1505.2,324.0,-0.8,1.8,2471.11,13.29,0.03,210.0
2023-02-15T01:31:03,42.805,6.029,-0.006,-0.021,-0.027,102.0,101.0,101.0,13.3,1505.2,333.4,-0.8,1.8,2471.115,13.29,0.021,195.9
2023-02-15T01:34:03,42.805,6.029,-0.025,-0.015,-0.023,102.0,103.0,101.0,13.4,1505.2,324.5,-0.7,1.8,2471.167,13.29,0.029,239.0
2023-02-15T01:37:03,42.805,6.029,-0.024,-0.043,-0.064,101.0,102.0,101.0,13.4,1505.2,321.0,-0.8,1.8,2471.133,13.29,0.049,209.2
2023-02-15T01:40:03,42.805,6.029,-0.003,-0.001,-0.002,102.0,101.0,101.0,13.3,1505.2,335.6,-0.8,1.8,2471.096,13.29,0.003,251.6
2023-02-15T01:43:03,42.805,6.029,-0.022,0.014,-0.02,102.0,103.0,101.0,13.4,1505.2,326.9,-0.8,1.8,2471.122,13.29,0.026,302.5
2023-02-15T01:46:03,42.805,6.029,-0.027,0.002,-0.04,101.0,102.0,102.0,13.3,1505.2,337.3,-0.7,1.8,2471.138,13.29,0.027,274.2
2023-02-15T01:49:03,42.805,6.029,-0.044,-0.018,-0.055,102.0,102.0,101.0,13.4,1505.2,323.6,-0.8,1.8,2471.115,13.29,0.047,247.8
2023-02-15T01:52:03,42.805,6.029,-0.015,-0.023,-0.039,101.0,102.0,102.0,13.4,1505.2,332.1,-0.8,1.8,2471.135,13.29,0.027,213.1
2023-02-15T01:55:03,42.805,6.029,-0.035,-0.007,-0.003,103.0,101.0,102.0,13.3,1505.2,324.7,-0.8,1.9,2471.107,13.29,0.035,258.7
2023-02-15T01:58:03,42.805,6.029,-0.024,-0.003,-0.024,102.0,102.0,101.0,13.4,1505.2,336.1,-0.8,1.8,2471.151,13.29,0.024,262.9
2023-02-15T02:04:03,42.805,6.029,0.001,-0.017,-0.003,102.0,102.0,102.0,13.4,1505.2,320.9,-0.8,1.8,2471.117,13.28,0.017,176.6
2023-02-15T02:07:03,42.805,6.029,-0.027,-0.016,-0.011,102.0,102.0,102.0,13.3,1505.2,327.0,-0.8,1.8,2471.169,13.28,0.031,239.3
2023-02-15T02:10:03,42.805,6.029,-0.013,-0.011,-0.018,101.0,103.0,102.0,13.3,1505.2,324.3,-0.8,1.8,2471.141,13.29,0.017,229.8
2023-02-15T02:13:03,42.805,6.029,-0.039,-0.005,-0.031,102.0,102.0,102.0,13.4,1505.2,330.8,-0.8,1.8,2471.139,13.29,0.039,262.7
2023-02-15T02:16:03,42.805,6.029,-0.016,-0.032,-0.032,103.0,102.0,102.0,13.4,1505.2,315.5,-0.8,1.8,2471.116,13.29,0.035,206.6
2023-02-15T02:19:03,42.805,6.029,-0.016,-0.034,-0.054,101.0,102.0,102.0,13.3,1505.2,314.4,-0.7,1.8,2471.085,13.29,0.037,205.2
2023-02-15T02:22:03,42.805,6.029,-0.029,-0.023,-0.005,103.0,102.0,102.0,13.3,1505.2,336.8,-0.7,1.8,2471.127,13.29,0.037,231.6
2023-02-15T02:25:03,42.805,6.029,-0.02,-0.01,-0.043,102.0,102.0,101.0,13.3,1505.2,317.1,-0.8,1.8,2471.145,13.29,0.022,243.4
2023-02-15T02:28:03,42.805,6.029,-0.019,-0.008,-0.008,101.0,102.0,101.0,13.3,1505.2,321.0,-0.7,1.8,2471.105,13.29,0.02,247.2
2023-02-15T02:31:03,42.805,6.029,-0.015,-0.019,-0.036,102.0,101.0,102.0,13.4,1505.2,320.3,-0.7,1.8,2471.102,13.29,0.024,218.3
2023-02-15T02:34:03,42.805,6.029,-0.03,0.005,-0.052,102.0,102.0,102.0,13.4,1505.2,338.7,-0.8,1.8,2471.115,13.29,0.03,279.5
2023-02-15T02:37:03,42.805,6.029,-0.028,0.008,-0.034,103.0,101.0,101.0,13.3,1505.2,323.1,-0.7,1.8,2471.125,13.29,0.029,285.9
2023-02-15T02:40:03,42.805,6.029,-0.047,-0.009,-0.022,104.0,101.0,102.0,13.4,1505.2,319.2,-0.8,1.8,2471.091,13.29,0.047,259.2
2023-02-15T02:43:03,42.805,6.029,-0.013,-0.021,-0.023,104.0,102.0,101.0,13.3,1505.2,324.3,-0.7,1.8,2471.126,13.29,0.024,211.8
2023-02-15T02:46:03,42.805,6.029,-0.027,0.0,-0.009,102.0,104.0,103.0,13.4,1505.2,326.0,-0.7,1.8,2471.145,13.29,0.026,270.0
2023-02-15T02:49:03,42.805,6.029,-0.02,0.001,-0.024,103.0,103.0,102.0,13.4,1505.2,323.7,-0.7,1.9,2471.125,13.29,0.02,272.9
2023-02-15T02:52:03,42.805,6.029,-0.034,-0.011,-0.057,104.0,103.0,102.0,13.3,1505.2,316.6,-0.8,1.8,2471.106,13.29,0.035,252.1
2023-02-15T02:55:03,42.805,6.029,-0.025,-0.008,-0.066,104.0,103.0,102.0,13.4,1505.2,325.7,-0.8,1.8,2471.135,13.29,0.026,252.3
2023-02-15T02:58:03,42.805,6.029,-0.017,-0.009,-0.016,104.0,103.0,103.0,13.4,1505.2,330.4,-0.8,1.8,2471.089,13.29,0.019,242.1
2023-02-15T03:04:03,42.805,6.029,-0.041,0.009,-0.011,103.0,103.0,102.0,13.4,1505.2,322.8,-0.8,1.8,2471.174,13.28,0.041,282.4
2023-02-15T03:07:03,42.805,6.029,-0.032,-0.014,-0.043,104.0,104.0,102.0,13.4,1505.2,317.1,-0.8,1.8,2471.168,13.28,0.034,246.4
2023-02-15T03:10:03,42.805,6.029,-0.038,-0.011,-0.029,104.0,102.0,102.0,13.4,1505.2,315.5,-0.8,1.8,2471.168,13.29,0.039,253.9
2023-02-15T03:13:03,42.805,6.029,-0.031,-0.007,-0.042,104.0,103.0,102.0,13.4,1505.2,330.1,-0.8,1.8,2471.166,13.29,0.031,257.3
2023-02-15T03:16:03,42.805,6.029,-0.014,-0.005,-0.034,105.0,104.0,102.0,13.4,1505.2,335.3,-0.8,1.8,2471.154,13.29,0.014,250.4
2023-02-15T03:19:03,42.805,6.029,-0.028,-0.021,-0.023,105.0,103.0,101.0,13.3,1505.2,319.0,-0.7,1.8,2471.109,13.29,0.035,233.1
2023-02-15T03:22:03,42.805,6.029,-0.014,0.001,-0.043,103.0,104.0,102.0,13.3,1505.2,319.3,-0.8,1.8,2471.18,13.29,0.014,274.1
2023-02-15T03:25:03,42.805,6.029,-0.013,-0.018,-0.028,104.0,103.0,102.0,13.3,1505.2,324.6,-0.8,1.8,2471.13,13.29,0.022,215.8
2023-02-15T03:28:03,42.805,6.029,-0.001,-0.012,-0.027,104.0,102.0,103.0,13.4,1505.2,316.1,-0.8,1.9,2471.173,13.29,0.012,184.8
2023-02-15T03:31:03,42.805,6.029,-0.027,-0.005,-0.066,103.0,103.0,103.0,13.4,1505.2,331.1,-0.8,1.8,2471.118,13.29,0.027,259.5
2023-02-15T03:34:03,42.805,6.029,-0.028,-0.013,-0.026,105.0,104.0,104.0,13.4,1505.2,324.2,-0.7,1.8,2471.13,13.29,0.03,245.1
2023-02-15T03:37:03,42.805,6.029,-0.047,0.012,-0.043,104.0,103.0,102.0,13.3,1505.2,329.7,-0.8,1.9,2471.146,13.29,0.048,284.3
2023-02-15T03:40:03,42.805,6.029,-0.044,0.0,-0.009,104.0,106.0,103.0,13.4,1505.2,321.3,-0.8,1.8,2471.14,13.29,0.044,270.0
2023-02-15T03:43:03,42.805,6.029,-0.01,0.005,0.015,104.0,103.0,102.0,13.4,1505.2,331.3,-0.7,1.8,2471.123,13.29,0.011,296.6
2023-02-15T03:46:03,42.805,6.029,-0.005,-0.005,-0.02,104.0,104.0,102.0,13.4,1505.2,323.7,-0.8,1.8,2471.101,13.29,0.007,225.0
2023-02-15T03:49:03,42.805,6.029,-0.012,0.021,-0.021,104.0,104.0,103.0,13.4,1505.2,331.3,-0.8,1.8,2471.123,13.29,0.024,330.3
2023-02-15T03:52:03,42.805,6.029,-0.004,-0.004,-0.035,106.0,104.0,103.0,13.3,1505.2,321.4,-0.8,1.8,2471.098,13.29,0.005,225.0
2023-02-15T03:55:03,42.805,6.029,-0.002,0.0,-0.011,104.0,106.0,103.0,13.4,1505.2,336.0,-0.8,1.8,2471.11,13.29,0.002,270.0
2023-02-15T03:58:03,42.805,6.029,-0.027,0.011,0.012,105.0,105.0,103.0,13.3,1505.2,327.3,-0.8,1.8,2471.122,13.29,0.029,292.2
2023-02-15T04:04:03,42.805,6.029,-0.033,-0.028,-0.059,104.0,104.0,103.0,13.4,1505.2,317.6,-0.7,1.8,2471.165,13.28,0.043,229.7
2023-02-15T04:07:03,42.805,6.029,-0.046,-0.007,-0.009,104.0,104.0,103.0,13.4,1505.2,326.5,-0.8,1.8,2471.199,13.28,0.046,261.3
2023-02-15T04:10:03,42.805,6.029,-0.008,-0.007,-0.043,105.0,104.0,104.0,13.4,1505.2,327.5,-0.8,1.8,2471.173,13.29,0.01,228.8
2023-02-15T04:13:03,42.805,6.029,-0.031,0.005,-0.002,104.0,104.0,103.0,13.3,1505.2,327.3,-0.8,1.8,2471.143,13.29,0.031,279.2
2023-02-15T04:16:03,42.805,6.029,-0.027,0.003,-0.006,105.0,104.0,103.0,13.4,1505.2,316.6,-0.8,1.8,2471.14,13.29,0.027,276.3
2023-02-15T04:19:03,42.805,6.029,-0.017,-0.002,-0.018,105.0,104.0,102.0,13.4,1505.2,320.9,-0.8,1.8,2471.141,13.29,0.017,263.3
2023-02-15T04:22:03,42.805,6.029,-0.038,0.006,-0.021,106.0,103.0,102.0,13.4,1505.2,333.0,-0.8,1.8,2471.124,13.29,0.038,279.0
2023-02-15T04:25:03,42.805,6.029,-0.023,0.011,-0.016,104.0,104.0,103.0,13.4,1505.2,333.8,-0.8,1.8,2471.117,13.29,0.025,295.6
2023-02-15T04:28:03,42.805,6.029,0.003,-0.02,-0.052,105.0,104.0,104.0,13.4,1505.2,336.5,-0.7,1.8,2471.152,13.29,0.02,171.5
2023-02-15T04:31:03,42.805,6.029,-0.012,-0.006,-0.017,104.0,105.0,103.0,13.4,1505.2,326.7,-0.8,1.8,2471.125,13.29,0.013,243.4
2023-02-15T04:34:03,42.805,6.029,-0.043,-0.015,-0.012,106.0,104.0,104.0,13.4,1505.2,318.6,-0.7,1.8,2471.096,13.29,0.045,250.8
2023-02-15T04:37:03,42.805,6.029,-0.006,-0.018,-0.057,104.0,105.0,104.0,13.4,1505.2,324.0,-0.8,1.8,2471.152,13.29,0.018,198.4
2023-02-15T04:40:03,42.805,6.029,-0.043,0.002,-0.033,106.0,104.0,104.0,13.3,1505.2,320.0,-0.8,1.8,2471.091,13.29,0.043,272.7
2023-02-15T04:43:03,42.805,6.029,-0.017,-0.007,-0.063,105.0,106.0,103.0,13.4,1505.2,318.0,-0.7,1.8,2471.119,13.29,0.018,247.6
2023-02-15T04:46:03,42.805,6.029,-0.026,-0.019,-0.037,104.0,106.0,103.0,13.4,1505.2,322.7,-0.7,1.8,2471.147,13.29,0.032,233.8
2023-02-15T04:49:03,42.805,6.029,-0.02,0.006,-0.05,104.0,105.0,103.0,13.4,1505.2,335.4,-0.8,1.8,2471.158,13.29,0.02,286.7
2023-02-15T04:52:03,42.805,6.029,-0.019,-0.001,-0.066,104.0,104.0,103.0,13.3,1505.2,333.0,-0.7,1.8,2471.151,13.29,0.019,267.0
2023-02-15T04:55:03,42.805,6.029,-0.028,0.004,-0.024,105.0,104.0,104.0,13.3,1505.2,317.1,-0.8,1.8,2471.125,13.29,0.028,278.1
2023-02-15T04:58:03,42.805,6.029,-0.003,-0.009,-0.011,106.0,105.0,104.0,13.4,1505.2,324.7,-0.8,1.8,2471.118,13.29,0.009,198.4
2023-02-15T05:04:03,42.805,6.029,-0.008,-0.001,-0.035,104.0,105.0,103.0,13.4,1505.2,320.4,-0.8,1.8,2471.164,13.28,0.008,262.9
2023-02-15T05:07:03,42.805,6.029,-0.018,-0.006,-0.044,105.0,104.0,103.0,13.3,1505.2,336.9,-0.8,1.8,2471.147,13.29,0.018,251.6
2023-02-15T05:10:03,42.805,6.029,-0.037,0.0,-0.026,104.0,104.0,103.0,13.4,1505.2,338.5,-0.8,1.8,2471.169,13.29,0.037,270.0
2023-02-15T05:13:03,42.805,6.029,-0.023,0.015,-0.01,105.0,104.0,103.0,13.4,1505.2,319.2,-0.8,1.8,2471.105,13.29,0.027,303.1
2023-02-15T05:16:03,42.805,6.029,-0.026,0.001,-0.018,105.0,104.0,103.0,13.3,1505.2,320.7,-0.8,1.8,2471.103,13.29,0.026,272.2
2023-02-15T05:19:03,42.805,6.029,-0.028,0.005,-0.017,105.0,103.0,103.0,13.4,1505.2,328.9,-0.8,1.8,2471.133,13.29,0.028,280.1
2023-02-15T05:22:03,42.805,6.029,0.002,-0.002,-0.005,104.0,104.0,103.0,13.4,1505.2,318.0,-0.7,1.8,2471.148,13.29,0.002,135.0
2023-02-15T05:25:03,42.805,6.029,-0.014,-0.005,-0.036,105.0,104.0,103.0,13.4,1505.2,327.4,-0.8,1.8,2471.119,13.29,0.014,250.4
2023-02-15T05:28:03,42.805,6.029,-0.018,0.007,-0.044,104.0,104.0,104.0,13.4,1505.2,315.5,-0.8,1.8,2471.132,13.29,0.019,291.2
2023-02-15T05:31:03,42.805,6.029,-0.02,0.017,-0.006,104.0,105.0,103.0,13.4,1505.2,319.7,-0.8,1.8,2471.157,13.29,0.026,310.4
2023-02-15T05:34:03,42.805,6.029,-0.021,0.013,-0.024,104.0,103.0,103.0,13.4,1505.2,333.8,-0.8,1.8,2471.113,13.29,0.024,301.8
2023-02-15T05:37:03,42.805,6.029,-0.028,0.025,-0.023,105.0,106.0,103.0,13.4,1505.2,336.1,-0.8,1.8,2471.086,13.29,0.037,311.8
2023-02-15T05:40:03,42.805,6.029,-0.035,0.022,-0.056,104.0,104.0,103.0,13.4,1505.2,338.7,-0.8,1.8,2471.145,13.29,0.041,302.2
2023-02-15T05:43:03,42.805,6.029,-0.014,0.01,-0.016,105.0,104.0,103.0,13.4,1505.2,335.8,-0.8,1.8,2471.119,13.29,0.017,305.5
2023-02-15T05:46:03,42.805,6.029,-0.011,0.005,-0.046,105.0,104.0,102.0,13.3,1505.2,317.1,-0.8,1.8,2471.129,13.29,0.012,294.4
2023-02-15T05:49:03,42.805,6.029,-0.015,0.007,-0.057,106.0,104.0,103.0,13.3,1505.2,327.4,-0.8,1.8,2471.143,13.29,0.016,295.0
2023-02-15T05:52:03,42.805,6.029,-0.009,0.021,0.009,105.0,104.0,103.0,13.4,1505.2,323.6,-0.8,1.8,2471.09,13.29,0.022,336.8
2023-02-15T05:55:03,42.805,6.029,-0.019,0.017,-0.029,106.0,104.0,104.0,13.3,1505.2,324.0,-0.8,1.9,2471.103,13.29,0.025,311.8
2023-02-15T05:58:03,42.805,6.029,-0.028,0.011,-0.033,103.0,104.0,102.0,13.4,1505.2,317.3,-0.7,1.8,2471.122,13.29,0.03,291.4
2023-02-15T06:04:03,42.805,6.029,-0.031,0.006,-0.019,105.0,104.0,102.0,13.3,1505.2,329.3,-0.7,1.8,2471.142,13.29,0.031,281.0
2023-02-15T06:07:03,42.805,6.029,0.007,-0.005,-0.023,104.0,105.0,103.0,13.3,1505.2,320.8,-0.8,1.8,2471.119,13.29,0.008,125.5
2023-02-15T06:10:03,42.805,6.029,-0.008,0.011,-0.005,105.0,103.0,103.0,13.4,1505.2,332.1,-0.8,1.8,2471.148,13.29,0.013,324.0
2023-02-15T06:13:03,42.805,6.029,-0.03,0.017,-0.032,105.0,104.0,103.0,13.4,1505.2,329.0,-0.8,1.8,2471.132,13.29,0.034,299.5
2023-02-15T06:16:03,42.805,6.029,-0.028,0.034,-0.031,104.0,103.0,103.0,13.4,1505.2,325.8,-0.7,1.8,2471.108,13.29,0.044,320.5
2023-02-15T06:19:03,42.805,6.029,-0.014,0.001,-0.011,105.0,104.0,102.0,13.4,1505.2,323.1,-0.8,1.8,2471.133,13.29,0.014,274.1
2023-02-15T06:22:03,42.805,6.029,-0.021,0.01,-0.022,104.0,103.0,104.0,13.3,1505.2,320.1,-0.8,1.8,2471.098,13.29,0.023,295.5
2023-02-15T06:25:03,42.805,6.029,-0.003,0.009,0.006,104.0,104.0,103.0,13.4,1505.2,321.8,-0.7,1.8,2471.116,13.29,0.009,341.6
2023-02-15T06:28:03,42.805,6.029,-0.002,0.02,-0.025,106.0,104.0,103.0,13.4,1505.2,331.7,-0.8,1.8,2471.134,13.29,0.02,354.3
2023-02-15T06:31:03,42.805,6.029,-0.009,0.003,-0.041,104.0,105.0,102.0,13.4,1505.2,321.0,-0.8,1.8,2471.122,13.29,0.009,288.4
2023-02-15T06:34:03,42.805,6.029,-0.046,0.0,-0.034,104.0,104.0,103.0,13.4,1505.2,323.8,-0.8,1.8,2471.105,13.29,0.046,270.0
2023-02-15T06:37:03,42.805,6.029,-0.005,0.005,-0.033,104.0,105.0,103.0,13.3,1505.2,329.3,-0.8,1.8,2471.142,13.29,0.007,315.0
2023-02-15T06:40:03,42.805,6.029,-0.019,0.01,-0.016,104.0,105.0,102.0,13.3,1505.2,315.5,-0.7,1.8,2471.115,13.29,0.021,297.8
2023-02-15T06:43:03,42.805,6.029,-0.005,0.015,-0.007,106.0,105.0,102.0,13.4,1505.2,318.8,-0.7,1.8,2471.108,13.29,0.015,341.6
2023-02-15T06:46:03,42.805,6.029,0.003,0.029,-0.016,104.0,104.0,103.0,13.4,1505.2,331.9,-0.7,1.8,2471.118,13.29,0.029,5.9
2023-02-15T06:49:03,42.805,6.029,0.002,0.028,-0.001,105.0,106.0,103.0,13.4,1505.2,336.5,-0.7,1.8,2471.136,13.29,0.028,4.1
2023-02-15T06:52:03,42.805,6.029,-0.024,0.005,-0.025,104.0,104.0,104.0,13.4,1505.2,318.2,-0.7,1.8,2471.058,13.29,0.024,281.8
2023-02-15T06:55:03,42.805,6.029,-0.004,0.002,-0.021,103.0,105.0,103.0,13.4,1505.2,316.0,-0.7,1.8,2471.131,13.29,0.004,296.6
2023-02-15T06:58:03,42.805,6.029,-0.024,-0.004,-0.021,105.0,105.0,104.0,13.4,1505.2,330.8,-0.8,1.8,2471.088,13.29,0.024,260.5
2023-02-15T07:04:03,42.805,6.029,0.019,0.024,0.012,107.0,105.0,102.0,13.3,1505.2,330.6,-0.8,1.8,2471.146,13.29,0.03,38.4
2023-02-15T07:07:03,42.805,6.029,-0.002,-0.002,-0.001,105.0,102.0,103.0,13.4,1505.2,315.5,-0.8,1.8,2471.133,13.29,0.002,225.0
2023-02-15T07:10:03,42.805,6.029,-0.018,0.002,-0.006,104.0,104.0,103.0,13.4,1505.2,316.7,-0.8,1.8,2471.136,13.29,0.018,276.3
2023-02-15T07:13:03,42.805,6.029,-0.021,0.014,-0.003,103.0,103.0,104.0,13.4,1505.2,319.4,-0.8,1.8,2471.154,13.29,0.025,303.7
2023-02-15T07:16:03,42.805,6.029,-0.043,0.028,-0.05,104.0,104.0,103.0,13.4,1505.2,332.1,-0.8,1.8,2471.146,13.29,0.051,303.1
2023-02-15T07:19:03,42.805,6.029,0.003,0.015,-0.005,105.0,104.0,101.0,13.3,1505.2,330.4,-0.8,1.8,2471.139,13.29,0.015,11.3
2023-02-15T07:22:03,42.805,6.029,-0.007,0.021,-0.022,104.0,104.0,102.0,13.4,1505.2,334.2,-0.8,1.9,2471.068,13.29,0.022,341.6
2023-02-15T07:25:03,42.805,6.029,0.0,0.01,-0.038,104.0,103.0,102.0,13.3,1505.2,324.9,-0.8,1.8,2471.092,13.29,0.01,0.0
2023-02-15T07:28:03,42.805,6.029,-0.021,0.009,-0.022,104.0,103.0,102.0,13.4,1505.2,331.2,-0.7,1.8,2471.081,13.29,0.022,293.2
2023-02-15T07:31:03,42.805,6.029,-0.008,0.028,-0.027,104.0,103.0,102.0,13.3,1505.2,333.4,-0.8,1.8,2471.099,13.29,0.029,344.1
2023-02-15T07:34:03,42.805,6.029,-0.029,0.016,-0.027,104.0,103.0,104.0,13.4,1505.2,334.6,-0.8,1.8,2471.114,13.29,0.033,298.9
2023-02-15T07:37:03,42.805,6.029,-0.022,-0.002,-0.04,105.0,103.0,101.0,13.4,1505.2,333.8,-0.8,1.8,2471.126,13.29,0.022,264.8
2023-02-15T07:40:03,42.805,6.029,-0.005,0.02,-0.036,104.0,104.0,102.0,13.4,1505.2,325.7,-0.7,1.8,2471.122,13.29,0.02,346.0
2023-02-15T07:43:03,42.805,6.029,-0.023,0.016,0.0,104.0,104.0,103.0,13.4,1505.2,322.6,-0.8,1.8,2471.106,13.29,0.028,304.8
2023-02-15T07:46:03,42.805,6.029,-0.013,0.02,0.008,105.0,105.0,103.0,13.4,1505.2,329.3,-0.8,1.8,2471.082,13.29,0.023,327.0
2023-02-15T07:49:03,42.805,6.029,-0.021,0.012,0.01,106.0,104.0,101.0,13.4,1505.2,322.5,-0.8,1.8,2471.073,13.29,0.024,299.7
2023-02-15T07:52:03,42.805,6.029,0.012,0.0,-0.009,103.0,104.0,103.0,13.3,1505.2,320.6,-0.8,1.8,2471.106,13.29,0.012,90.0
2023-02-15T07:55:03,42.805,6.029,-0.027,0.017,-0.024,103.0,103.0,103.0,13.4,1505.2,331.3,-0.8,1.8,2471.081,13.29,0.031,302.2
2023-02-15T07:58:03,42.805,6.029,-0.001,0.014,-0.024,103.0,104.0,103.0,13.4,1505.2,334.3,-0.8,1.8,2471.077,13.29,0.014,355.9
2023-02-15T08:04:03,42.805,6.029,-0.012,-0.002,-0.027,104.0,104.0,102.0,13.4,1505.2,320.5,-0.7,1.8,2471.148,13.29,0.012,260.5
2023-02-15T08:07:03,42.805,6.029,0.006,-0.002,-0.02,104.0,104.0,103.0,13.4,1505.2,334.2,-0.8,1.8,2471.117,13.29,0.006,108.4
2023-02-15T08:10:03,42.805,6.029,-0.001,0.008,-0.036,104.0,104.0,102.0,13.4,1505.2,329.0,-0.8,1.8,2471.116,13.29,0.008,352.9
2023-02-15T08:13:03,42.805,6.029,-0.011,0.012,-0.028,104.0,104.0,102.0,13.3,1505.2,323.4,-0.8,1.8,2471.103,13.29,0.016,317.5
2023-02-15T08:16:03,42.805,6.029,-0.018,0.019,-0.013,103.0,105.0,102.0,13.3,1505.2,337.0,-0.8,1.8,2471.137,13.29,0.026,316.5
2023-02-15T08:19:03,42.805,6.029,-0.016,0.0,-0.007,104.0,104.0,102.0,13.4,1505.2,332.6,-0.8,1.8,2471.099,13.29,0.016,270.0
2023-02-15T08:22:03,42.805,6.029,0.002,0.007,-0.005,105.0,103.0,104.0,13.4,1505.2,329.3,-0.8,1.8,2471.112,13.29,0.007,15.9
2023-02-15T08:25:03,42.805,6.029,-0.009,0.008,-0.062,104.0,104.0,103.0,13.4,1505.2,326.0,-0.8,1.8,2471.098,13.29,0.012,311.6
2023-02-15T08:28:03,42.805,6.029,-0.016,-0.007,-0.016,104.0,103.0,102.0,13.4,1505.2,323.6,-0.8,1.8,2471.08,13.29,0.017,246.4
2023-02-15T08:31:03,42.805,6.029,0.006,0.016,0.01,103.0,103.0,104.0,13.3,1505.2,328.6,-0.7,1.8,2471.065,13.29,0.017,20.6
2023-02-15T08:34:03,42.805,6.029,0.01,0.01,0.01,104.0,103.0,102.0,13.4,1505.2,320.4,-0.7,1.8,2471.073,13.29,0.014,45.0
2023-02-15T08:37:03,42.805,6.029,-0.007,0.026,-0.025,105.0,103.0,103.0,13.4,1505.2,330.4,-0.7,1.8,2471.086,13.29,0.026,344.9
2023-02-15T08:40:03,42.805,6.029,0.004,0.012,-0.005,106.0,103.0,102.0,13.3,1505.2,327.1,-0.7,1.8,2471.127,13.29,0.012,18.4
2023-02-15T08:43:03,42.805,6.029,0.002,0.013,-0.006,105.0,104.0,102.0,13.4,1505.2,325.8,-0.8,1.9,2471.086,13.29,0.013,8.7
2023-02-15T08:46:03,42.805,6.029,-0.017,0.024,0.022,103.0,104.0,101.0,13.3,1505.2,320.8,-0.8,1.8,2471.078,13.29,0.029,324.7
2023-02-15T08:49:03,42.805,6.029,-0.01,-0.002,-0.043,103.0,104.0,103.0,13.4,1505.2,321.0,-0.8,1.8,2471.091,13.29,0.01,258.7
2023-02-15T08:52:03,42.805,6.029,-0.005,0.007,-0.027,103.0,104.0,104.0,13.4,1505.2,331.1,-0.8,1.8,2471.055,13.29,0.008,324.5
2023-02-15T08:55:03,42.805,6.029,0.004,-0.001,-0.056,104.0,102.0,103.0,13.3,1505.2,331.6,-0.8,1.8,2471.094,13.29,0.004,104.0
2023-02-15T08:58:03,42.805,6.029,0.011,0.0,-0.011,105.0,104.0,103.0,13.4,1505.2,337.0,-0.8,1.8,2471.068,13.29,0.011,90.0
2023-02-15T09:04:03,42.805,6.029,-0.006,-0.012,-0.042,105.0,104.0,103.0,13.4,1505.2,318.7,-0.7,1.8,2471.129,13.29,0.013,206.6
2023-02-15T09:07:03,42.805,6.029,-0.006,-0.007,-0.046,104.0,104.0,103.0,13.4,1505.2,316.6,-0.7,1.8,2471.107,13.29,0.009,220.6
2023-02-15T09:10:03,42.805,6.029,-0.005,0.0,-0.037,104.0,104.0,102.0,13.3,1505.2,323.4,-0.8,1.9,2471.135,13.29,0.005,270.0
2023-02-15T09:13:03,42.805,6.029,-0.004,-0.007,-0.007,104.0,102.0,103.0,13.4,1505.2,327.3,-0.8,1.8,2471.081,13.29,0.008,209.7
2023-02-15T09:16:03,42.805,6.029,-0.019,0.012,-0.02,105.0,104.0,103.0,13.4,1505.2,325.7,-0.8,1.8,2471.067,13.29,0.022,302.3
2023-02-15T09:19:03,42.805,6.029,-0.016,0.009,-0.019,105.0,103.0,103.0,13.4,1505.2,321.7,-0.8,1.8,2471.073,13.29,0.018,299.4
2023-02-15T09:22:03,42.805,6.029,-0.006,-0.008,-0.008,104.0,105.0,103.0,13.4,1505.2,330.2,-0.7,1.8,2471.082,13.29,0.01,216.9
2023-02-15T09:25:03,42.805,6.029,0.004,-0.001,-0.026,105.0,103.0,103.0,13.4,1505.2,333.4,-0.8,1.8,2471.099,13.29,0.004,104.0
2023-02-15T09:28:03,42.805,6.029,-0.004,0.004,-0.025,105.0,103.0,103.0,13.4,1505.2,324.9,-0.8,1.8,2471.099,13.29,0.005,315.0
2023-02-15T09:31:03,42.805,6.029,-0.01,-0.004,-0.026,104.0,103.0,104.0,13.4,1505.2,337.8,-0.8,1.8,2471.108,13.29,0.01,248.2
2023-02-15T09:34:03,42.805,6.029,-0.009,0.014,-0.021,104.0,105.0,104.0,13.4,1505.2,323.6,-0.7,1.8,2471.081,13.29,0.016,327.3
2023-02-15T09:37:03,42.805,6.029,-0.002,0.008,-0.026,103.0,103.0,103.0,13.3,1505.2,330.0,-0.8,1.8,2471.092,13.29,0.008,346.0
2023-02-15T09:40:03,42.805,6.029,-0.005,0.016,-0.018,103.0,103.0,102.0,13.3,1505.2,333.9,-0.7,1.8,2471.056,13.29,0.016,342.6
2023-02-15T09:43:03,42.805,6.029,-0.002,0.001,-0.019,104.0,103.0,103.0,13.4,1505.2,320.8,-0.8,1.8,2471.09,13.29,0.002,296.6
2023-02-15T09:46:03,42.805,6.029,0.014,-0.019,-0.031,102.0,105.0,102.0,13.3,1505.2,329.5,-0.8,1.8,2471.119,13.29,0.023,143.6
2023-02-15T09:49:03,42.805,6.029,-0.006,0.018,-0.03,104.0,104.0,102.0,13.4,1505.2,325.3,-0.8,1.8,2471.058,13.29,0.018,341.6
2023-02-15T09:52:03,42.805,6.029,-0.01,0.019,-0.031,103.0,104.0,103.0,13.4,1505.2,325.4,-0.8,1.8,2471.101,13.29,0.021,332.2